Starlink 30246

operational
NORAD ID: 57615 Int'l Des: 2023-119 Owner: SPXS Country: US Constellation: starlink
LEOCIRCULAR

关于 Starlink 30246

正在加载描述...

实时位置

正在加载3D地球...

即将过境

高度历史

Altitude vs Time

uPlot chart will show altitude changes over time

两行轨道根数

1 57615U 23119P 25258.21791663 .00000200 00000-0 29845-4 0 9991
2 57615 43.0031 314.7809 0001345 268.4180 91.6509 15.02536241116693
Epoch: Sep 15, 2025 • Age: 11 hours

当前状态

高度 558.5 km
速度 7.58 km/s
星下点 4.13°N, 75.4°E
发射日期 Aug 11, 2023
运行时间 2 years
类型 internet

技术详情

分类 Payload
质量 730.00 kg
干质量 700.00 kg
总质量 730.00 kg
长度 0.30 m
直径 4.10 m
跨度 29.00 m
形状 Box + pan
制造商 SPXS
平台类型 Starlink V2M
阶段状态 In Orbit
所有者/国家 SPXS/US

大型星座

Loading constellations...